Weather History for Richmond, KY

Change the Weather History Date:

Wednesday, February 6, 2013

  Actual Average (KLOZ) Record (KLOZ)
Temperature  
Mean Temperature 39 °F 38 °F  
Max Temperature 50 °F 47 °F 71 °F (2008)
Min Temperature 28 °F 28 °F 1 °F (1978)
Degree Days  
Heating Degree Days 26 27  
Month to date heating degree days 167  
Since 1 July heating degree days 2730  
Cooling Degree Days 0 0  
Month to date cooling degree days 0  
Year to date cooling degree days 0  
Moisture  
Dew Point 31 °F    
Average Humidity 75    
Maximum Humidity 100    
Minimum Humidity 47    
Precipitation  
Precipitation 0.00 in 0.13 in 1.40 in (2004)
Month to date precipitation 0.77  
Year to date precipitation 4.31  
Sea Level Pressure  
Sea Level Pressure 30.16 in    
Wind  
Wind Speed 3 mph (NE)    
Max Wind Speed 8 mph    
Max Gust Speed -    
Visibility 9 miles    
Events      
T = Trace of Precipitation, MM = Missing Value Source: NWS Daily Summary

Daily Weather History Graph

Daily Weather History Graph

Search for Another Location

Airport:

Trip Planner

Search our weather history database for the weather conditions in past years. The results will help you decide how hot, cold, wet, or windy it might be!

Date:

Astronomy

Feb. 06, 2013 Rise Set
Actual Time 7:36 AM EST 6:07 PM EST
Civil Twilight 7:08 AM EST 6:34 PM EST
Nautical Twilight 6:37 AM EST 7:05 PM EST
Astronomical Twilight 6:07 AM EST 7:36 PM EST
Moon 4:16 AM EST (2/6) 2:26 PM EST (2/6)
Length of Visible Light 11h 25m
Length of Day
10h 30m
Waning Crescent, 17% of the Moon is Illuminated
Feb 6
Waning Crescent
Feb 10
New
Feb 17
First Quarter
Feb 25
Full
Mar 4
Last Quarter

Hourly Weather History & Observations

Time (EST) Temp. Windchill Dew Point Humidity Pressure Visibility Wind Dir Wind Speed Gust Speed Precip Events Conditions
12:15 AM 41.0 °F 35.8 °F 32.0 °F 70% 30.04 in 10.0 mi NW 8.1 mph - N/A   Clear
12:35 AM 39.2 °F 37.0 °F 32.0 °F 75% 30.05 in 10.0 mi WNW 3.5 mph - N/A   Clear
12:55 AM 39.2 °F 35.9 °F 32.0 °F 75% 30.05 in 10.0 mi NW 4.6 mph - N/A   Clear
1:15 AM 37.4 °F 33.8 °F 30.2 °F 75% 30.06 in 10.0 mi NW 4.6 mph - N/A   Clear
1:35 AM 37.4 °F - 32.0 °F 81% 30.06 in 10.0 mi Calm Calm - N/A   Clear
1:55 AM 39.2 °F - 32.0 °F 75% 30.06 in 10.0 mi Calm Calm - N/A   Clear
2:15 AM 39.2 °F 37.0 °F 32.0 °F 75% 30.07 in 10.0 mi West 3.5 mph - N/A   Clear
2:35 AM 37.4 °F - 32.0 °F 81% 30.07 in 10.0 mi Calm Calm - N/A   Clear
2:55 AM 37.4 °F 34.9 °F 32.0 °F 81% 30.08 in 10.0 mi SW 3.5 mph - N/A   Clear
3:15 AM 35.6 °F 30.7 °F 30.2 °F 81% 30.09 in 10.0 mi SSW 5.8 mph - N/A   Clear
3:35 AM 35.6 °F - 30.2 °F 81% 30.08 in 10.0 mi Calm Calm - N/A   Clear
3:55 AM 35.6 °F 30.7 °F 30.2 °F 81% 30.09 in 10.0 mi SSW 5.8 mph - N/A   Clear
4:15 AM 33.8 °F 29.6 °F 30.2 °F 87% 30.10 in 10.0 mi SSW 4.6 mph - N/A   Clear
4:35 AM 33.8 °F - 30.2 °F 87% 30.10 in 10.0 mi Calm Calm - N/A   Clear
5:15 AM 32.0 °F - 30.2 °F 93% 30.12 in 7.0 mi Calm Calm - N/A   Clear
5:35 AM 30.2 °F - 28.4 °F 93% 30.12 in 7.0 mi Calm Calm - N/A   Clear
5:55 AM 30.2 °F - 28.4 °F 93% 30.13 in 7.0 mi Calm Calm - N/A   Clear
6:15 AM 30.2 °F - 28.4 °F 93% 30.13 in 7.0 mi Calm Calm - N/A   Clear
6:35 AM 30.2 °F - 28.4 °F 93% 30.14 in 7.0 mi Calm Calm - N/A   Clear
6:55 AM 30.2 °F - 28.4 °F 93% 30.15 in 5.0 mi Calm Calm - N/A   Clear
7:15 AM 30.2 °F - 30.2 °F 100% 30.16 in 5.0 mi Calm Calm - N/A   Mostly Cloudy
7:35 AM 30.2 °F - 28.4 °F 93% 30.16 in 5.0 mi Calm Calm - N/A   Overcast
7:55 AM 28.4 °F - 26.6 °F 93% 30.16 in 3.0 mi Calm Calm - N/A   Overcast
8:15 AM 28.4 °F - 26.6 °F 93% 30.18 in 4.0 mi Calm Calm - N/A   Overcast
8:35 AM 30.2 °F 26.7 °F 28.4 °F 93% 30.19 in 4.0 mi SW 3.5 mph - N/A   Overcast
8:55 AM 32.0 °F - 30.2 °F 93% 30.20 in 4.0 mi Calm Calm - N/A   Overcast
9:15 AM 32.0 °F - 30.2 °F 93% 30.20 in 4.0 mi Calm Calm - N/A   Overcast
9:35 AM 33.8 °F - 32.0 °F 93% 30.20 in 4.0 mi Calm Calm - N/A   Overcast
9:55 AM 35.6 °F - 32.0 °F 87% 30.21 in 5.0 mi Calm Calm - N/A   Overcast
10:15 AM 35.6 °F 31.7 °F 32.0 °F 87% 30.21 in 5.0 mi East 4.6 mph - N/A   Overcast
10:35 AM 37.4 °F 33.8 °F 32.0 °F 81% 30.22 in 7.0 mi East 4.6 mph - N/A   Overcast
10:55 AM 39.2 °F 35.0 °F 33.8 °F 81% 30.22 in 7.0 mi ENE 5.8 mph - N/A   Mostly Cloudy
11:15 AM 41.0 °F 39.0 °F 33.8 °F 76% 30.23 in 10.0 mi East 3.5 mph - N/A   Clear
11:35 AM 41.0 °F 38.0 °F 32.0 °F 70% 30.23 in 10.0 mi NE 4.6 mph - N/A   Scattered Clouds
12:15 PM 42.8 °F 39.3 °F 32.0 °F 66% 30.22 in 10.0 mi ESE 5.8 mph - N/A   Scattered Clouds
12:35 PM 44.6 °F 43.1 °F 32.0 °F 61% 30.22 in 10.0 mi South 3.5 mph - N/A   Scattered Clouds
12:55 PM 44.6 °F - 32.0 °F 61% 30.21 in 10.0 mi Calm Calm - N/A   Clear
1:15 PM 44.6 °F - 32.0 °F 61% 30.21 in 10.0 mi Calm Calm - N/A   Scattered Clouds
1:35 PM 46.4 °F - 32.0 °F 57% 30.19 in 10.0 mi Calm Calm - N/A   Scattered Clouds
1:55 PM 46.4 °F 43.5 °F 32.0 °F 57% 30.20 in 10.0 mi West 5.8 mph - N/A   Scattered Clouds
2:15 PM 48.2 °F - 32.0 °F 54% 30.18 in 10.0 mi SW 3.5 mph - N/A   Scattered Clouds
2:55 PM 48.2 °F - 30.2 °F 50% 30.18 in 10.0 mi WNW 8.1 mph - N/A   Clear
3:15 PM 48.2 °F - 30.2 °F 50% 30.18 in 10.0 mi Calm Calm - N/A   Clear
3:35 PM 50.0 °F - 30.2 °F 47% 30.19 in 10.0 mi NW 4.6 mph - N/A   Clear
3:55 PM 48.2 °F - 30.2 °F 50% 30.18 in 10.0 mi WNW 8.1 mph - N/A   Clear
4:15 PM 48.2 °F - 30.2 °F 50% 30.18 in 10.0 mi WNW 3.5 mph - N/A   Clear
4:35 PM 48.2 °F - 30.2 °F 50% 30.18 in 10.0 mi North 4.6 mph - N/A   Clear
4:55 PM 48.2 °F - 30.2 °F 50% 30.19 in 10.0 mi NNW 5.8 mph - N/A   Clear
5:15 PM 48.2 °F - 30.2 °F 50% 30.18 in 10.0 mi NNE 3.5 mph - N/A   Clear
5:35 PM 48.2 °F - 30.2 °F 50% 30.18 in 10.0 mi NNE 3.5 mph - N/A   Clear
5:55 PM 46.4 °F 45.2 °F 30.2 °F 53% 30.18 in 10.0 mi NE 3.5 mph - N/A   Clear
6:15 PM 44.6 °F 42.2 °F 32.0 °F 61% 30.18 in 10.0 mi ENE 4.6 mph - N/A   Clear
6:35 PM 42.8 °F 40.1 °F 32.0 °F 66% 30.18 in 10.0 mi ENE 4.6 mph - N/A   Clear
6:55 PM 41.0 °F 38.0 °F 32.0 °F 70% 30.17 in 10.0 mi East 4.6 mph - N/A   Clear
7:15 PM 41.0 °F 39.0 °F 30.2 °F 65% 30.17 in 10.0 mi ENE 3.5 mph - N/A   Clear
7:35 PM 41.0 °F - 32.0 °F 70% 30.19 in 10.0 mi Calm Calm - N/A   Clear
8:15 PM 37.4 °F 33.8 °F 30.2 °F 75% 30.19 in 10.0 mi NNE 4.6 mph - N/A   Clear
8:55 PM 37.4 °F 32.8 °F 30.2 °F 75% 30.18 in 10.0 mi NE 5.8 mph - N/A   Clear
9:15 PM 37.4 °F 33.8 °F 30.2 °F 75% 30.18 in 10.0 mi NE 4.6 mph - N/A   Clear
9:35 PM 37.4 °F 33.8 °F 30.2 °F 75% 30.18 in 10.0 mi ENE 4.6 mph - N/A   Clear
9:55 PM 37.4 °F 33.8 °F 30.2 °F 75% 30.20 in 10.0 mi ENE 4.6 mph - N/A   Clear
10:15 PM 35.6 °F 32.8 °F 30.2 °F 81% 30.20 in 10.0 mi ENE 3.5 mph - N/A   Clear
10:35 PM 35.6 °F - 30.2 °F 81% 30.20 in 10.0 mi Calm Calm - N/A   Clear
10:55 PM 35.6 °F - 30.2 °F 81% 30.19 in 10.0 mi Calm Calm - N/A   Clear
11:15 PM 35.6 °F 32.8 °F 30.2 °F 81% 30.18 in 10.0 mi East 3.5 mph - N/A   Clear
11:35 PM 35.6 °F 31.7 °F 30.2 °F 81% 30.17 in 10.0 mi East 4.6 mph - N/A   Clear
11:55 PM 35.6 °F 30.7 °F 30.2 °F 81% 30.16 in 10.0 mi East 5.8 mph - N/A   Clear